Time,TemperatureF,DewpointF,PressureIn,WindDirection,WindDirectionDegrees,WindSpeedMPH,WindSpeedGustMPH,Humidity,HourlyPrecipIn,Conditions,Clouds,dailyrainin,SoftwareType,DateUTC
2013-04-19 00:01:00,52.1,50.1,30.10,SSE,162,0.0,1.0,93,0.00,,,0.00,Wunderground v.1.15,2013-04-19 04:01:00,
2013-04-19 00:03:00,52.1,50.1,30.10,SE,131,0.0,1.0,93,0.00,,,0.00,Wunderground v.1.15,2013-04-19 04:03:00,
2013-04-19 00:06:00,52.2,50.2,30.10,SE,143,0.0,1.0,93,0.00,,,0.00,Wunderground v.1.15,2013-04-19 04:06:00,
2013-04-19 00:07:00,52.2,50.2,30.10,SE,143,0.0,1.0,93,0.00,,,0.00,Wunderground v.1.15,2013-04-19 04:07:00,
2013-04-19 00:08:00,52.2,50.2,30.10,SE,143,0.0,1.0,93,0.00,,,0.00,Wunderground v.1.15,2013-04-19 04:08:00,
2013-04-19 00:13:00,52.2,50.2,30.09,SE,143,0.0,0.0,93,0.00,,,0.00,Wunderground v.1.15,2013-04-19 04:13:00,
2013-04-19 00:18:00,52.2,50.5,30.09,SE,143,0.0,0.0,94,0.00,,,0.00,Wunderground v.1.15,2013-04-19 04:18:00,
2013-04-19 00:23:00,52.2,50.2,30.09,SE,142,0.0,1.0,93,0.00,,,0.00,Wunderground v.1.15,2013-04-19 04:23:00,
2013-04-19 00:28:00,52.2,50.5,30.09,SSE,155,0.0,1.0,94,0.00,,,0.00,Wunderground v.1.15,2013-04-19 04:28:00,
2013-04-19 00:33:00,52.3,50.6,30.09,SE,144,0.0,1.0,94,0.00,,,0.00,Wunderground v.1.15,2013-04-19 04:33:00,
2013-04-19 00:38:00,52.3,50.6,30.09,SE,144,0.0,1.0,94,0.00,,,0.00,Wunderground v.1.15,2013-04-19 04:38:00,
2013-04-19 00:43:00,52.3,50.9,30.08,SE,144,0.0,0.0,95,0.00,,,0.00,Wunderground v.1.15,2013-04-19 04:43:00,
2013-04-19 00:49:00,52.4,51.0,30.08,SSW,211,0.0,1.0,95,0.00,,,0.00,Wunderground v.1.15,2013-04-19 04:49:00,
2013-04-19 00:54:00,52.4,51.3,30.08,ESE,105,0.0,0.0,96,0.00,,,0.00,Wunderground v.1.15,2013-04-19 04:54:00,
2013-04-19 00:59:00,52.4,51.3,30.08,ESE,105,0.0,0.0,96,0.00,,,0.00,Wunderground v.1.15,2013-04-19 04:59:00,
2013-04-19 01:05:00,52.4,51.3,30.07,ESE,105,0.0,0.0,96,0.00,,,0.00,Wunderground v.1.15,2013-04-19 05:05:00,
2013-04-19 01:10:00,52.4,51.3,30.07,SE,134,0.0,0.0,96,0.00,,,0.00,Wunderground v.1.15,2013-04-19 05:10:00,
2013-04-19 01:15:00,52.4,51.3,30.06,SE,134,0.0,0.0,96,0.00,,,0.00,Wunderground v.1.15,2013-04-19 05:15:00,
2013-04-19 01:20:00,52.3,51.5,30.06,SE,134,0.0,0.0,97,0.00,,,0.00,Wunderground v.1.15,2013-04-19 05:20:00,
2013-04-19 01:25:00,52.4,51.6,30.06,SE,134,0.0,0.0,97,0.00,,,0.00,Wunderground v.1.15,2013-04-19 05:25:00,
2013-04-19 01:31:00,52.3,51.5,30.05,SE,134,0.0,0.0,97,0.00,,,0.00,Wunderground v.1.15,2013-04-19 05:31:00,
2013-04-19 01:36:00,52.3,51.5,30.05,SSE,158,0.0,0.0,97,0.00,,,0.00,Wunderground v.1.15,2013-04-19 05:36:00,
2013-04-19 01:42:00,52.3,51.5,30.05,SSE,158,0.0,0.0,97,0.00,,,0.00,Wunderground v.1.15,2013-04-19 05:42:00,
2013-04-19 01:47:00,52.3,51.8,30.05,SSE,158,0.0,0.0,98,0.00,,,0.00,Wunderground v.1.15,2013-04-19 05:47:00,
2013-04-19 01:52:00,52.4,51.9,30.05,SSE,158,0.0,0.0,98,0.00,,,0.00,Wunderground v.1.15,2013-04-19 05:52:00,
2013-04-19 01:57:00,52.4,51.9,30.05,SSE,158,0.0,0.0,98,0.00,,,0.00,Wunderground v.1.15,2013-04-19 05:57:00,
2013-04-19 02:03:00,52.4,51.9,30.04,SSE,158,0.0,0.0,98,0.00,,,0.00,Wunderground v.1.15,2013-04-19 06:03:00,
2013-04-19 02:08:00,52.5,52.0,30.04,SSE,158,0.0,0.0,98,0.00,,,0.00,Wunderground v.1.15,2013-04-19 06:08:00,
2013-04-19 02:14:00,52.5,52.0,30.04,SSE,158,0.0,0.0,98,0.00,,,0.00,Wunderground v.1.15,2013-04-19 06:14:00,
2013-04-19 02:19:00,52.5,52.0,30.04,South,186,0.0,1.0,98,0.00,,,0.00,Wunderground v.1.15,2013-04-19 06:19:00,
2013-04-19 02:24:00,52.5,52.0,30.05,South,186,0.0,0.0,98,0.00,,,0.00,Wunderground v.1.15,2013-04-19 06:24:00,
2013-04-19 02:29:00,52.5,52.0,30.04,South,186,0.0,0.0,98,0.00,,,0.00,Wunderground v.1.15,2013-04-19 06:29:00,
2013-04-19 02:34:00,52.4,51.9,30.04,South,186,0.0,0.0,98,0.00,,,0.00,Wunderground v.1.15,2013-04-19 06:34:00,
2013-04-19 02:39:00,52.3,51.8,30.04,South,186,0.0,0.0,98,0.00,,,0.00,Wunderground v.1.15,2013-04-19 06:39:00,
2013-04-19 02:44:00,52.3,51.8,30.04,South,186,0.0,0.0,98,0.00,,,0.00,Wunderground v.1.15,2013-04-19 06:44:00,
2013-04-19 02:49:00,52.3,51.8,30.03,South,186,0.0,0.0,98,0.00,,,0.00,Wunderground v.1.15,2013-04-19 06:49:00,
2013-04-19 02:54:00,52.3,52.0,30.03,South,186,0.0,0.0,99,0.00,,,0.00,Wunderground v.1.15,2013-04-19 06:54:00,
2013-04-19 02:59:00,52.3,52.0,30.03,South,186,0.0,0.0,99,0.00,,,0.00,Wunderground v.1.15,2013-04-19 06:59:00,
2013-04-19 03:04:00,52.3,52.0,30.03,South,186,0.0,0.0,99,0.00,,,0.00,Wunderground v.1.15,2013-04-19 07:04:00,
2013-04-19 03:09:00,52.3,52.0,30.03,South,186,0.0,0.0,99,0.00,,,0.00,Wunderground v.1.15,2013-04-19 07:09:00,
2013-04-19 03:14:00,52.3,52.0,30.02,South,186,0.0,0.0,99,0.00,,,0.00,Wunderground v.1.15,2013-04-19 07:14:00,
2013-04-19 03:19:00,52.3,52.0,30.02,South,186,0.0,0.0,99,0.00,,,0.00,Wunderground v.1.15,2013-04-19 07:19:00,
2013-04-19 03:25:00,52.4,52.1,30.02,South,186,0.0,0.0,99,0.00,,,0.00,Wunderground v.1.15,2013-04-19 07:25:00,
2013-04-19 03:31:00,52.4,52.1,30.01,South,186,0.0,0.0,99,0.00,,,0.00,Wunderground v.1.15,2013-04-19 07:31:00,
2013-04-19 03:37:00,52.5,52.2,30.01,SE,132,0.0,0.0,99,0.00,,,0.00,Wunderground v.1.15,2013-04-19 07:37:00,
2013-04-19 03:42:00,52.6,52.3,30.00,SE,132,0.0,0.0,99,0.00,,,0.00,Wunderground v.1.15,2013-04-19 07:42:00,
2013-04-19 03:47:00,52.7,52.4,30.00,SSE,152,1.0,3.0,99,0.00,,,0.00,Wunderground v.1.15,2013-04-19 07:47:00,
2013-04-19 03:52:00,52.9,52.6,30.00,SSE,152,1.0,1.0,99,0.00,,,0.00,Wunderground v.1.15,2013-04-19 07:52:00,
2013-04-19 03:57:00,53.0,52.7,29.99,SE,135,1.0,2.0,99,0.00,,,0.00,Wunderground v.1.15,2013-04-19 07:57:00,
2013-04-19 04:03:00,53.3,52.5,29.98,SE,145,1.0,2.0,97,0.00,,,0.00,Wunderground v.1.15,2013-04-19 08:03:00,
2013-04-19 04:09:00,53.3,52.5,29.98,South,171,2.0,4.0,97,0.00,,,0.00,Wunderground v.1.15,2013-04-19 08:09:00,
2013-04-19 04:14:00,53.4,52.6,29.98,South,177,3.0,7.0,97,0.00,,,0.00,Wunderground v.1.15,2013-04-19 08:14:00,
2013-04-19 04:19:00,53.4,53.1,29.98,South,189,2.0,7.0,99,0.00,,,0.00,Wunderground v.1.15,2013-04-19 08:19:00,
2013-04-19 04:24:00,53.6,53.3,29.98,South,189,1.0,2.0,99,0.00,,,0.00,Wunderground v.1.15,2013-04-19 08:24:00,
2013-04-19 04:29:00,53.8,53.8,29.98,SSE,164,1.0,4.0,100,0.00,,,0.00,Wunderground v.1.15,2013-04-19 08:29:00,
2013-04-19 04:34:00,53.9,53.9,29.99,South,181,1.0,2.0,100,0.00,,,0.00,Wunderground v.1.15,2013-04-19 08:34:00,
2013-04-19 04:39:00,54.0,53.7,29.99,SSE,159,1.0,2.0,99,0.00,,,0.00,Wunderground v.1.15,2013-04-19 08:39:00,
2013-04-19 04:44:00,54.0,53.7,29.98,SSW,200,1.0,4.0,99,0.00,,,0.00,Wunderground v.1.15,2013-04-19 08:44:00,
2013-04-19 04:49:00,54.0,53.7,29.98,SSE,163,1.0,4.0,99,0.00,,,0.00,Wunderground v.1.15,2013-04-19 08:49:00,
2013-04-19 04:54:00,54.1,53.8,29.98,SW,217,1.0,4.0,99,0.00,,,0.00,Wunderground v.1.15,2013-04-19 08:54:00,
2013-04-19 04:59:00,54.1,53.8,29.98,SW,217,1.0,4.0,99,0.00,,,0.00,Wunderground v.1.15,2013-04-19 08:59:00,
2013-04-19 05:05:00,54.1,53.8,29.98,SW,217,0.0,1.0,99,0.00,,,0.00,Wunderground v.1.15,2013-04-19 09:05:00,
2013-04-19 05:10:00,54.2,53.9,29.98,SSE,163,0.0,2.0,99,0.00,,,0.00,Wunderground v.1.15,2013-04-19 09:10:00,
2013-04-19 05:15:00,54.3,54.3,29.97,South,184,0.0,2.0,100,0.00,,,0.00,Wunderground v.1.15,2013-04-19 09:15:00,
2013-04-19 05:20:00,54.3,54.3,29.97,SW,222,0.0,1.0,100,0.00,,,0.00,Wunderground v.1.15,2013-04-19 09:20:00,
2013-04-19 05:26:00,54.5,54.5,29.97,SW,215,0.0,1.0,100,0.00,,,0.00,Wunderground v.1.15,2013-04-19 09:26:00,
2013-04-19 05:31:00,54.6,54.6,29.97,SW,215,0.0,1.0,100,0.00,,,0.00,Wunderground v.1.15,2013-04-19 09:31:00,
2013-04-19 05:36:00,54.7,54.7,29.97,SW,215,0.0,2.0,100,0.00,,,0.00,Wunderground v.1.15,2013-04-19 09:36:00,
2013-04-19 05:42:00,54.7,54.7,29.97,SW,215,0.0,1.0,100,0.00,,,0.00,Wunderground v.1.15,2013-04-19 09:42:00,
2013-04-19 05:47:00,54.9,54.9,29.97,South,186,0.0,1.0,100,0.00,,,0.00,Wunderground v.1.15,2013-04-19 09:47:00,
2013-04-19 05:52:00,55.0,55.0,29.97,SSW,196,1.0,2.0,100,0.00,,,0.00,Wunderground v.1.15,2013-04-19 09:52:00,
2013-04-19 05:57:00,55.1,55.1,29.96,South,175,1.0,2.0,100,0.00,,,0.00,Wunderground v.1.15,2013-04-19 09:57:00,
2013-04-19 06:03:00,55.1,55.1,29.96,South,180,1.0,1.0,100,0.00,,,0.00,Wunderground v.1.15,2013-04-19 10:03:00,
2013-04-19 06:08:00,55.2,55.2,29.96,SSW,193,1.0,3.0,100,0.00,,,0.00,Wunderground v.1.15,2013-04-19 10:08:00,
2013-04-19 06:13:00,55.2,55.2,29.96,SSW,193,1.0,1.0,100,0.00,,,0.00,Wunderground v.1.15,2013-04-19 10:13:00,
2013-04-19 06:18:00,55.3,55.3,29.96,South,178,1.0,3.0,100,0.00,,,0.00,Wunderground v.1.15,2013-04-19 10:18:00,
2013-04-19 06:24:00,55.3,55.3,29.96,SSW,195,1.0,4.0,100,0.00,,,0.00,Wunderground v.1.15,2013-04-19 10:24:00,
2013-04-19 06:28:00,55.4,55.4,29.96,ESE,119,1.0,4.0,100,0.00,,,0.00,Wunderground v.1.15,2013-04-19 10:28:00,
2013-04-19 06:34:00,55.4,55.4,29.96,South,187,1.0,3.0,100,0.00,,,0.00,Wunderground v.1.15,2013-04-19 10:34:00,
2013-04-19 06:39:00,55.4,55.4,29.96,SSE,162,1.0,4.0,100,0.00,,,0.00,Wunderground v.1.15,2013-04-19 10:39:00,
2013-04-19 06:44:00,55.5,55.5,29.95,SSW,192,2.0,2.0,100,0.00,,,0.00,Wunderground v.1.15,2013-04-19 10:44:00,
2013-04-19 06:50:00,55.6,55.6,29.95,South,190,2.0,2.0,100,0.00,,,0.00,Wunderground v.1.15,2013-04-19 10:50:00,
2013-04-19 06:56:00,55.7,55.7,29.95,South,184,1.0,2.0,100,0.00,,,0.00,Wunderground v.1.15,2013-04-19 10:56:00,
2013-04-19 07:02:00,55.8,55.8,29.96,South,175,1.0,1.0,100,0.00,,,0.00,Wunderground v.1.15,2013-04-19 11:02:00,
2013-04-19 07:07:00,55.8,55.8,29.96,South,175,1.0,2.0,100,0.00,,,0.00,Wunderground v.1.15,2013-04-19 11:07:00,
2013-04-19 07:12:00,55.8,55.8,29.96,South,175,1.0,1.0,100,0.00,,,0.00,Wunderground v.1.15,2013-04-19 11:12:00,
2013-04-19 07:17:00,55.9,55.9,29.97,South,175,1.0,1.0,100,0.00,,,0.00,Wunderground v.1.15,2013-04-19 11:17:00,
2013-04-19 07:22:00,55.9,55.9,29.97,South,175,0.0,0.0,100,0.00,,,0.00,Wunderground v.1.15,2013-04-19 11:22:00,
2013-04-19 07:27:00,56.0,56.0,29.96,SW,221,0.0,1.0,100,0.00,,,0.00,Wunderground v.1.15,2013-04-19 11:27:00,
2013-04-19 07:32:00,56.0,56.0,29.97,South,178,1.0,3.0,100,0.00,,,0.00,Wunderground v.1.15,2013-04-19 11:32:00,
2013-04-19 07:38:00,56.1,56.1,29.97,SSW,196,1.0,3.0,100,0.00,,,0.00,Wunderground v.1.15,2013-04-19 11:38:00,
2013-04-19 07:43:00,56.2,56.2,29.97,South,177,2.0,3.0,100,0.00,,,0.00,Wunderground v.1.15,2013-04-19 11:43:00,
2013-04-19 07:48:00,56.3,56.3,29.97,South,179,4.0,5.0,100,0.00,,,0.00,Wunderground v.1.15,2013-04-19 11:48:00,
2013-04-19 07:54:00,56.4,56.4,29.96,South,190,4.0,7.0,100,0.00,,,0.00,Wunderground v.1.15,2013-04-19 11:54:00,
2013-04-19 07:59:00,56.5,56.5,29.96,South,180,3.0,7.0,100,0.00,,,0.00,Wunderground v.1.15,2013-04-19 11:59:00,
2013-04-19 08:04:00,56.6,56.6,29.96,South,170,2.0,3.0,100,0.00,,,0.00,Wunderground v.1.15,2013-04-19 12:04:00,
2013-04-19 08:09:00,56.8,56.8,29.96,SSE,160,2.0,3.0,100,0.00,,,0.00,Wunderground v.1.15,2013-04-19 12:09:00,
2013-04-19 08:15:00,57.0,57.0,29.96,South,184,2.0,2.0,100,0.00,,,0.00,Wunderground v.1.15,2013-04-19 12:15:00,
2013-04-19 08:20:00,57.2,57.2,29.95,ESE,121,2.0,2.0,100,0.00,,,0.00,Wunderground v.1.15,2013-04-19 12:20:00,
2013-04-19 08:25:00,57.2,57.2,29.95,SE,146,2.0,3.0,100,0.00,,,0.00,Wunderground v.1.15,2013-04-19 12:25:00,
2013-04-19 08:30:00,57.3,57.3,29.94,South,177,2.0,2.0,100,0.00,,,0.00,Wunderground v.1.15,2013-04-19 12:30:00,
2013-04-19 08:35:00,57.3,57.3,29.94,SSE,167,2.0,3.0,100,0.00,,,0.00,Wunderground v.1.15,2013-04-19 12:35:00,
2013-04-19 08:41:00,57.5,57.5,29.94,South,190,2.0,3.0,100,0.00,,,0.00,Wunderground v.1.15,2013-04-19 12:41:00,
2013-04-19 08:46:00,57.7,57.7,29.94,SSE,160,2.0,3.0,100,0.00,,,0.00,Wunderground v.1.15,2013-04-19 12:46:00,
2013-04-19 08:51:00,57.8,57.8,29.94,South,187,2.0,4.0,100,0.00,,,0.00,Wunderground v.1.15,2013-04-19 12:51:00,
2013-04-19 08:56:00,57.9,57.9,29.94,South,180,3.0,5.0,100,0.00,,,0.00,Wunderground v.1.15,2013-04-19 12:56:00,
2013-04-19 09:02:00,57.8,57.8,29.94,South,190,3.0,3.0,100,0.00,,,0.00,Wunderground v.1.15,2013-04-19 13:02:00,
2013-04-19 09:07:00,57.9,57.9,29.94,SSW,192,3.0,4.0,100,0.00,,,0.00,Wunderground v.1.15,2013-04-19 13:07:00,
2013-04-19 09:14:00,57.9,57.9,29.94,South,171,2.0,7.0,100,0.00,,,0.00,Wunderground v.1.15,2013-04-19 13:14:00,
2013-04-19 09:19:00,57.9,57.9,29.94,South,171,2.0,7.0,100,0.00,,,0.00,Wunderground v.1.15,2013-04-19 13:19:00,
2013-04-19 09:24:00,58.0,57.7,29.94,SSE,163,2.0,3.0,99,0.00,,,0.00,Wunderground v.1.15,2013-04-19 13:24:00,
2013-04-19 09:29:00,58.1,57.8,29.94,South,175,1.0,3.0,99,0.00,,,0.00,Wunderground v.1.15,2013-04-19 13:29:00,
2013-04-19 09:34:00,58.3,58.0,29.93,SSW,194,1.0,4.0,99,0.00,,,0.00,Wunderground v.1.15,2013-04-19 13:34:00,
2013-04-19 09:40:00,58.4,58.1,29.93,SSE,147,1.0,1.0,99,0.00,,,0.00,Wunderground v.1.15,2013-04-19 13:40:00,
2013-04-19 09:46:00,58.7,58.4,29.93,South,173,1.0,4.0,99,0.00,,,0.00,Wunderground v.1.15,2013-04-19 13:46:00,
2013-04-19 09:51:00,59.0,58.7,29.93,South,171,1.0,1.0,99,0.00,,,0.00,Wunderground v.1.15,2013-04-19 13:51:00,
2013-04-19 09:56:00,59.2,58.6,29.92,South,177,1.0,2.0,98,0.00,,,0.00,Wunderground v.1.15,2013-04-19 13:56:00,
2013-04-19 10:02:00,59.4,58.5,29.92,SE,142,1.0,3.0,97,0.00,,,0.00,Wunderground v.1.15,2013-04-19 14:02:00,
2013-04-19 10:07:00,59.7,58.8,29.92,ESE,115,1.0,3.0,97,0.00,,,0.00,Wunderground v.1.15,2013-04-19 14:07:00,
2013-04-19 10:13:00,60.1,59.0,29.92,SE,144,1.0,2.0,96,0.00,,,0.00,Wunderground v.1.15,2013-04-19 14:13:00,
2013-04-19 10:18:00,60.4,59.3,29.91,SSW,210,1.0,4.0,96,0.00,,,0.00,Wunderground v.1.15,2013-04-19 14:18:00,
2013-04-19 10:24:00,60.8,59.4,29.91,SSW,198,1.0,5.0,95,0.00,,,0.00,Wunderground v.1.15,2013-04-19 14:24:00,
2013-04-19 10:29:00,61.2,59.5,29.91,SW,217,3.0,5.0,94,0.00,,,0.00,Wunderground v.1.15,2013-04-19 14:29:00,
2013-04-19 10:34:00,61.7,60.0,29.90,South,172,3.0,3.0,94,0.00,,,0.00,Wunderground v.1.15,2013-04-19 14:34:00,
2013-04-19 10:40:00,62.1,60.1,29.90,SSE,163,1.0,2.0,93,0.00,,,0.00,Wunderground v.1.15,2013-04-19 14:40:00,
2013-04-19 10:45:00,62.6,60.5,29.90,South,185,2.0,3.0,93,0.00,,,0.00,Wunderground v.1.15,2013-04-19 14:45:00,
2013-04-19 10:50:00,63.4,61.3,29.89,SSE,154,2.0,2.0,93,0.00,,,0.00,Wunderground v.1.15,2013-04-19 14:50:00,
2013-04-19 10:55:00,64.5,61.5,29.89,WSW,244,2.0,5.0,90,0.00,,,0.00,Wunderground v.1.15,2013-04-19 14:55:00,
2013-04-19 11:00:00,65.2,61.6,29.89,SSE,167,2.0,4.0,88,0.00,,,0.00,Wunderground v.1.15,2013-04-19 15:00:00,
2013-04-19 11:06:00,65.4,61.1,29.89,SSW,209,2.0,6.0,86,0.00,,,0.00,Wunderground v.1.15,2013-04-19 15:06:00,
2013-04-19 11:11:00,65.6,61.0,29.89,South,191,3.0,5.0,85,0.00,,,0.00,Wunderground v.1.15,2013-04-19 15:11:00,
2013-04-19 11:17:00,66.0,61.7,29.88,South,178,3.0,5.0,86,0.00,,,0.00,Wunderground v.1.15,2013-04-19 15:17:00,
2013-04-19 11:22:00,66.5,61.5,29.87,SSW,208,3.0,4.0,84,0.00,,,0.00,Wunderground v.1.15,2013-04-19 15:22:00,
2013-04-19 11:27:00,67.2,61.5,29.88,SE,134,3.0,5.0,82,0.00,,,0.00,Wunderground v.1.15,2013-04-19 15:27:00,
2013-04-19 11:32:00,67.6,61.6,29.87,SSE,156,4.0,8.0,81,0.00,,,0.00,Wunderground v.1.15,2013-04-19 15:32:00,
2013-04-19 11:38:00,68.4,61.6,29.87,ESE,109,4.0,8.0,79,0.00,,,0.00,Wunderground v.1.15,2013-04-19 15:38:00,
2013-04-19 11:43:00,68.8,61.7,29.86,SSE,147,4.0,6.0,78,0.00,,,0.00,Wunderground v.1.15,2013-04-19 15:43:00,
2013-04-19 11:48:00,69.0,62.2,29.87,SSE,148,5.0,8.0,79,0.00,,,0.00,Wunderground v.1.15,2013-04-19 15:48:00,
2013-04-19 11:53:00,69.2,61.7,29.86,South,188,4.0,7.0,77,0.00,,,0.00,Wunderground v.1.15,2013-04-19 15:53:00,
2013-04-19 11:58:00,69.1,61.9,29.86,South,190,4.0,7.0,78,0.00,,,0.00,Wunderground v.1.15,2013-04-19 15:58:00,
2013-04-19 12:03:00,69.3,61.8,29.85,SSW,197,4.0,4.0,77,0.00,,,0.00,Wunderground v.1.15,2013-04-19 16:03:00,
2013-04-19 12:08:00,69.3,61.8,29.85,SW,221,4.0,6.0,77,0.00,,,0.00,Wunderground v.1.15,2013-04-19 16:08:00,
2013-04-19 12:14:00,69.6,61.7,29.85,SE,136,4.0,6.0,76,0.00,,,0.00,Wunderground v.1.15,2013-04-19 16:14:00,
2013-04-19 12:19:00,70.0,62.1,29.84,NE,40,4.0,6.0,76,0.00,,,0.00,Wunderground v.1.15,2013-04-19 16:19:00,
2013-04-19 12:24:00,69.8,61.9,29.84,SE,143,3.0,4.0,76,0.00,,,0.00,Wunderground v.1.15,2013-04-19 16:24:00,
2013-04-19 12:29:00,69.6,61.7,29.84,South,180,4.0,8.0,76,0.00,,,0.00,Wunderground v.1.15,2013-04-19 16:29:00,
2013-04-19 12:35:00,69.7,61.8,29.84,South,179,5.0,6.0,76,0.00,,,0.00,Wunderground v.1.15,2013-04-19 16:35:00,
2013-04-19 12:40:00,70.2,62.3,29.83,South,180,4.0,8.0,76,0.00,,,0.00,Wunderground v.1.15,2013-04-19 16:40:00,
2013-04-19 12:45:00,70.2,61.9,29.83,South,184,5.0,9.0,75,0.00,,,0.00,Wunderground v.1.15,2013-04-19 16:45:00,
2013-04-19 12:51:00,70.2,62.6,29.83,SSW,194,4.0,11.0,77,0.00,,,0.00,Wunderground v.1.15,2013-04-19 16:51:00,
2013-04-19 12:56:00,70.2,62.3,29.83,West,264,5.0,11.0,76,0.00,,,0.00,Wunderground v.1.15,2013-04-19 16:56:00,
2013-04-19 13:02:00,69.8,61.9,29.82,SW,221,6.0,8.0,76,0.00,,,0.00,Wunderground v.1.15,2013-04-19 17:02:00,
2013-04-19 13:08:00,69.8,61.9,29.81,South,187,5.0,9.0,76,0.00,,,0.00,Wunderground v.1.15,2013-04-19 17:08:00,
2013-04-19 13:14:00,70.4,62.5,29.81,ESE,117,4.0,7.0,76,0.00,,,0.00,Wunderground v.1.15,2013-04-19 17:14:00,
2013-04-19 13:19:00,71.0,62.7,29.81,SE,138,5.0,11.0,75,0.00,,,0.00,Wunderground v.1.15,2013-04-19 17:19:00,
2013-04-19 13:24:00,70.5,62.2,29.81,SW,232,7.0,13.0,75,0.00,,,0.00,Wunderground v.1.15,2013-04-19 17:24:00,
2013-04-19 13:29:00,70.2,62.3,29.81,South,179,7.0,13.0,76,0.00,,,0.00,Wunderground v.1.15,2013-04-19 17:29:00,
2013-04-19 13:34:00,69.9,62.4,29.81,SSE,157,5.0,7.0,77,0.00,,,0.00,Wunderground v.1.15,2013-04-19 17:34:00,
2013-04-19 13:40:00,69.3,61.4,29.81,SE,137,4.0,5.0,76,0.00,,,0.00,Wunderground v.1.15,2013-04-19 17:40:00,
2013-04-19 13:45:00,69.1,61.6,29.81,SSE,164,5.0,8.0,77,0.00,,,0.00,Wunderground v.1.15,2013-04-19 17:45:00,
2013-04-19 13:50:00,69.3,62.1,29.80,South,171,6.0,6.0,78,0.00,,,0.00,Wunderground v.1.15,2013-04-19 17:50:00,
2013-04-19 13:55:00,70.3,62.7,29.80,South,175,6.0,9.0,77,0.00,,,0.00,Wunderground v.1.15,2013-04-19 17:55:00,
2013-04-19 14:00:00,71.2,63.2,29.80,SE,144,7.0,7.0,76,0.00,,,0.00,Wunderground v.1.15,2013-04-19 18:00:00,
2013-04-19 14:06:00,70.7,62.4,29.80,SE,141,8.0,11.0,75,0.00,,,0.00,Wunderground v.1.15,2013-04-19 18:06:00,
2013-04-19 14:12:00,70.0,62.5,29.80,SSW,198,7.0,7.0,77,0.00,,,0.00,Wunderground v.1.15,2013-04-19 18:12:00,
2013-04-19 14:17:00,69.4,62.2,29.80,South,175,4.0,7.0,78,0.00,,,0.00,Wunderground v.1.15,2013-04-19 18:17:00,
2013-04-19 14:22:00,68.7,62.3,29.80,SSW,202,6.0,14.0,80,0.00,,,0.00,Wunderground v.1.15,2013-04-19 18:22:00,
2013-04-19 14:27:00,68.3,62.6,29.79,South,189,7.0,14.0,82,0.00,,,0.00,Wunderground v.1.15,2013-04-19 18:27:00,
2013-04-19 14:33:00,68.2,63.2,29.78,SE,126,6.0,11.0,84,0.00,,,0.00,Wunderground v.1.15,2013-04-19 18:33:00,
2013-04-19 14:39:00,68.4,62.7,29.78,SSW,192,7.0,11.0,82,0.00,,,0.00,Wunderground v.1.15,2013-04-19 18:39:00,
2013-04-19 14:45:00,68.4,63.0,29.77,SSE,154,5.0,7.0,83,0.00,,,0.00,Wunderground v.1.15,2013-04-19 18:45:00,
2013-04-19 14:50:00,68.8,63.4,29.77,SSW,192,4.0,4.0,83,0.00,,,0.00,Wunderground v.1.15,2013-04-19 18:50:00,
2013-04-19 14:55:00,68.9,62.5,29.76,SSE,150,4.0,11.0,80,0.00,,,0.00,Wunderground v.1.15,2013-04-19 18:55:00,
2013-04-19 15:00:00,69.0,62.9,29.76,ESE,119,6.0,6.0,81,0.00,,,0.00,Wunderground v.1.15,2013-04-19 19:00:00,
2013-04-19 15:06:00,69.3,62.9,29.76,SSW,205,5.0,6.0,80,0.00,,,0.00,Wunderground v.1.15,2013-04-19 19:06:00,
2013-04-19 15:12:00,69.6,62.8,29.76,East,93,5.0,7.0,79,0.00,,,0.00,Wunderground v.1.15,2013-04-19 19:12:00,
2013-04-19 15:17:00,69.7,62.2,29.76,SSW,206,5.0,7.0,77,0.00,,,0.00,Wunderground v.1.15,2013-04-19 19:17:00,
2013-04-19 15:22:00,69.8,62.3,29.75,SSE,167,6.0,9.0,77,0.00,,,0.00,Wunderground v.1.15,2013-04-19 19:22:00,
2013-04-19 15:27:00,70.1,62.6,29.74,South,173,5.0,9.0,77,0.00,,,0.00,Wunderground v.1.15,2013-04-19 19:27:00,
2013-04-19 15:33:00,70.0,62.5,29.74,SSW,202,5.0,10.0,77,0.00,,,0.00,Wunderground v.1.15,2013-04-19 19:33:00,
2013-04-19 15:39:00,70.0,62.5,29.74,SSW,212,4.0,10.0,77,0.00,,,0.00,Wunderground v.1.15,2013-04-19 19:39:00,
2013-04-19 15:44:00,69.9,62.7,29.74,SSE,168,3.0,4.0,78,0.00,,,0.00,Wunderground v.1.15,2013-04-19 19:44:00,
2013-04-19 15:49:00,69.9,62.7,29.73,NE,45,4.0,9.0,78,0.00,,,0.00,Wunderground v.1.15,2013-04-19 19:49:00,
2013-04-19 15:55:00,70.0,62.8,29.72,SSE,168,4.0,5.0,78,0.00,,,0.00,Wunderground v.1.15,2013-04-19 19:55:00,
2013-04-19 16:00:00,70.3,63.5,29.70,SSE,164,3.0,7.0,79,0.00,,,0.00,Wunderground v.1.15,2013-04-19 20:00:00,
2013-04-19 16:06:00,70.2,62.6,29.70,SSE,154,4.0,7.0,77,0.00,,,0.00,Wunderground v.1.15,2013-04-19 20:06:00,
2013-04-19 16:12:00,70.2,63.0,29.70,ESE,103,3.0,4.0,78,0.00,,,0.00,Wunderground v.1.15,2013-04-19 20:12:00,
2013-04-19 16:18:00,70.0,62.1,29.70,SSE,163,3.0,7.0,76,0.00,,,0.00,Wunderground v.1.15,2013-04-19 20:18:00,
2013-04-19 16:23:00,69.2,61.7,29.71,SSE,164,4.0,10.0,77,0.00,,,0.00,Wunderground v.1.15,2013-04-19 20:23:00,
2013-04-19 16:29:00,68.2,61.4,29.71,SE,125,5.0,10.0,79,0.00,,,0.00,Wunderground v.1.15,2013-04-19 20:29:00,
2013-04-19 16:34:00,67.6,61.6,29.71,South,180,4.0,5.0,81,0.00,,,0.00,Wunderground v.1.15,2013-04-19 20:34:00,
2013-04-19 16:39:00,67.2,61.5,29.71,SSE,148,3.0,5.0,82,0.00,,,0.00,Wunderground v.1.15,2013-04-19 20:39:00,
2013-04-19 16:44:00,66.6,61.3,29.71,SSE,163,3.0,6.0,83,0.00,,,0.00,Wunderground v.1.15,2013-04-19 20:44:00,
2013-04-19 16:49:00,66.1,60.8,29.71,SSW,195,3.0,6.0,83,0.00,,,0.00,Wunderground v.1.15,2013-04-19 20:49:00,
2013-04-19 16:54:00,65.4,60.4,29.70,SE,143,2.0,4.0,84,0.00,,,0.00,Wunderground v.1.15,2013-04-19 20:54:00,
2013-04-19 16:59:00,64.6,60.3,29.70,SSE,160,2.0,5.0,86,0.00,,,0.00,Wunderground v.1.15,2013-04-19 20:59:00,
2013-04-19 17:04:00,64.0,60.1,29.70,SE,137,3.0,8.0,87,0.00,,,0.00,Wunderground v.1.15,2013-04-19 21:04:00,
2013-04-19 17:09:00,63.4,59.5,29.69,South,177,3.0,8.0,87,0.00,,,0.00,Wunderground v.1.15,2013-04-19 21:09:00,
2013-04-19 17:14:00,62.9,59.3,29.70,SSW,192,3.0,12.0,88,0.00,,,0.00,Wunderground v.1.15,2013-04-19 21:14:00,
2013-04-19 17:19:00,62.8,59.5,29.69,SSE,163,3.0,12.0,89,0.00,,,0.00,Wunderground v.1.15,2013-04-19 21:19:00,
2013-04-19 17:24:00,62.7,59.4,29.69,SE,132,3.0,7.0,89,0.00,,,0.00,Wunderground v.1.15,2013-04-19 21:24:00,
2013-04-19 17:29:00,62.7,59.4,29.69,ESE,120,3.0,7.0,89,0.00,,,0.00,Wunderground v.1.15,2013-04-19 21:29:00,
2013-04-19 17:35:00,62.8,59.5,29.68,South,179,2.0,4.0,89,0.00,,,0.00,Wunderground v.1.15,2013-04-19 21:35:00,
2013-04-19 17:40:00,62.8,59.5,29.68,SSE,164,2.0,4.0,89,0.00,,,0.00,Wunderground v.1.15,2013-04-19 21:40:00,
2013-04-19 17:45:00,62.9,59.3,29.68,ESE,121,2.0,5.0,88,0.00,,,0.00,Wunderground v.1.15,2013-04-19 21:45:00,
2013-04-19 17:50:00,63.0,59.4,29.68,SE,130,3.0,4.0,88,0.00,,,0.00,Wunderground v.1.15,2013-04-19 21:50:00,
2013-04-19 17:55:00,63.0,59.4,29.69,SSE,162,2.0,4.0,88,0.00,,,0.00,Wunderground v.1.15,2013-04-19 21:55:00,
2013-04-19 18:00:00,62.9,59.3,29.69,SSE,157,2.0,2.0,88,0.00,,,0.00,Wunderground v.1.15,2013-04-19 22:00:00,
2013-04-19 18:06:00,62.9,59.3,29.68,SE,125,2.0,3.0,88,0.00,,,0.00,Wunderground v.1.15,2013-04-19 22:06:00,
2013-04-19 18:12:00,62.9,59.3,29.68,SSE,149,2.0,4.0,88,0.00,,,0.00,Wunderground v.1.15,2013-04-19 22:12:00,
2013-04-19 18:17:00,63.0,59.4,29.68,SSW,212,2.0,4.0,88,0.00,,,0.00,Wunderground v.1.15,2013-04-19 22:17:00,
2013-04-19 18:22:00,63.1,59.5,29.68,South,178,2.0,6.0,88,0.00,,,0.00,Wunderground v.1.15,2013-04-19 22:22:00,
2013-04-19 18:27:00,63.4,59.8,29.68,SSE,158,3.0,6.0,88,0.00,,,0.00,Wunderground v.1.15,2013-04-19 22:27:00,
2013-04-19 18:33:00,63.5,59.9,29.68,SSW,204,3.0,5.0,88,0.00,,,0.00,Wunderground v.1.15,2013-04-19 22:33:00,
2013-04-19 18:38:00,63.3,59.7,29.68,South,190,4.0,8.0,88,0.00,,,0.00,Wunderground v.1.15,2013-04-19 22:38:00,
2013-04-19 18:43:00,63.2,59.9,29.68,SSW,201,5.0,7.0,89,0.00,,,0.00,Wunderground v.1.15,2013-04-19 22:43:00,
2013-04-19 18:48:00,63.1,59.8,29.67,South,179,5.0,7.0,89,0.00,,,0.00,Wunderground v.1.15,2013-04-19 22:48:00,
2013-04-19 18:53:00,62.9,59.6,29.68,SSW,204,4.0,9.0,89,0.00,,,0.00,Wunderground v.1.15,2013-04-19 22:53:00,
2013-04-19 18:58:00,62.8,59.5,29.67,South,189,4.0,9.0,89,0.00,,,0.00,Wunderground v.1.15,2013-04-19 22:58:00,
2013-04-19 19:03:00,62.6,59.3,29.67,South,188,3.0,5.0,89,0.00,,,0.00,Wunderground v.1.15,2013-04-19 23:03:00,
2013-04-19 19:08:00,62.3,59.0,29.67,South,182,3.0,5.0,89,0.00,,,0.00,Wunderground v.1.15,2013-04-19 23:08:00,
2013-04-19 19:14:00,62.1,59.1,29.67,SSE,167,4.0,6.0,90,0.00,,,0.00,Wunderground v.1.15,2013-04-19 23:14:00,
2013-04-19 19:19:00,61.9,59.2,29.67,SSE,157,3.0,6.0,91,0.00,,,0.00,Wunderground v.1.15,2013-04-19 23:19:00,
2013-04-19 19:24:00,61.7,59.0,29.67,South,175,3.0,6.0,91,0.00,,,0.00,Wunderground v.1.15,2013-04-19 23:24:00,
2013-04-19 19:29:00,61.6,58.9,29.66,SE,134,3.0,6.0,91,0.00,,,0.00,Wunderground v.1.15,2013-04-19 23:29:00,
2013-04-19 19:34:00,61.5,59.2,29.66,SSE,161,4.0,5.0,92,0.00,,,0.00,Wunderground v.1.15,2013-04-19 23:34:00,
2013-04-19 19:40:00,61.5,59.5,29.66,SE,139,4.0,4.0,93,0.00,,,0.00,Wunderground v.1.15,2013-04-19 23:40:00,
2013-04-19 19:46:00,61.3,59.3,29.66,SE,143,3.0,6.0,93,0.00,,,0.00,Wunderground v.1.15,2013-04-19 23:46:00,
2013-04-19 19:51:00,61.3,59.3,29.65,SSE,159,4.0,8.0,93,0.00,,,0.00,Wunderground v.1.15,2013-04-19 23:51:00,
2013-04-19 19:57:00,61.3,59.6,29.65,SSW,195,3.0,8.0,94,0.00,,,0.00,Wunderground v.1.15,2013-04-19 23:57:00,
2013-04-19 20:02:00,61.2,59.8,29.66,South,191,3.0,4.0,95,0.00,,,0.00,Wunderground v.1.15,2013-04-20 00:02:00,
2013-04-19 20:07:00,61.2,59.8,29.66,SSE,151,5.0,9.0,95,0.00,,,0.00,Wunderground v.1.15,2013-04-20 00:07:00,
2013-04-19 20:12:00,61.2,59.8,29.65,SE,136,4.0,5.0,95,0.00,,,0.00,Wunderground v.1.15,2013-04-20 00:12:00,
2013-04-19 20:17:00,61.1,59.7,29.65,SSE,157,4.0,9.0,95,0.00,,,0.00,Wunderground v.1.15,2013-04-20 00:17:00,
2013-04-19 20:23:00,61.2,59.8,29.65,South,188,3.0,4.0,95,0.00,,,0.00,Wunderground v.1.15,2013-04-20 00:23:00,
2013-04-19 20:29:00,61.2,59.8,29.65,South,180,2.0,6.0,95,0.00,,,0.00,Wunderground v.1.15,2013-04-20 00:29:00,
2013-04-19 20:34:00,61.0,59.6,29.65,South,186,3.0,11.0,95,0.00,,,0.00,Wunderground v.1.15,2013-04-20 00:34:00,
2013-04-19 20:39:00,60.9,59.5,29.65,South,190,3.0,11.0,95,0.00,,,0.00,Wunderground v.1.15,2013-04-20 00:39:00,
2013-04-19 20:44:00,60.7,59.6,29.65,South,189,3.0,9.0,96,0.00,,,0.00,Wunderground v.1.15,2013-04-20 00:44:00,
2013-04-19 20:49:00,60.6,59.5,29.65,South,176,3.0,9.0,96,0.00,,,0.00,Wunderground v.1.15,2013-04-20 00:49:00,
2013-04-19 20:54:00,60.5,59.4,29.65,SE,129,3.0,6.0,96,0.00,,,0.00,Wunderground v.1.15,2013-04-20 00:54:00,
2013-04-19 20:59:00,60.5,59.6,29.65,SSW,192,4.0,7.0,97,0.00,,,0.00,Wunderground v.1.15,2013-04-20 00:59:00,
2013-04-19 21:05:00,60.5,59.6,29.65,SSW,196,3.0,8.0,97,0.00,,,0.00,Wunderground v.1.15,2013-04-20 01:05:00,
2013-04-19 21:11:00,60.5,59.6,29.66,South,184,4.0,6.0,97,0.00,,,0.00,Wunderground v.1.15,2013-04-20 01:11:00,
2013-04-19 21:16:00,60.4,59.5,29.66,SSE,153,5.0,6.0,97,0.00,,,0.00,Wunderground v.1.15,2013-04-20 01:16:00,
2013-04-19 21:21:00,60.4,59.5,29.65,South,169,4.0,5.0,97,0.00,,,0.00,Wunderground v.1.15,2013-04-20 01:21:00,
2013-04-19 21:27:00,60.3,59.4,29.66,South,184,3.0,6.0,97,0.00,,,0.00,Wunderground v.1.15,2013-04-20 01:27:00,
2013-04-19 21:32:00,60.3,59.4,29.65,East,94,3.0,7.0,97,0.00,,,0.00,Wunderground v.1.15,2013-04-20 01:32:00,
2013-04-19 21:38:00,60.3,59.4,29.65,South,179,3.0,7.0,97,0.00,,,0.00,Wunderground v.1.15,2013-04-20 01:38:00,
2013-04-19 21:43:00,60.2,59.3,29.65,South,188,3.0,3.0,97,0.00,,,0.00,Wunderground v.1.15,2013-04-20 01:43:00,
2013-04-19 21:48:00,60.2,59.3,29.66,South,186,3.0,6.0,97,0.00,,,0.00,Wunderground v.1.15,2013-04-20 01:48:00,
2013-04-19 21:54:00,60.1,59.2,29.65,South,189,3.0,3.0,97,0.00,,,0.00,Wunderground v.1.15,2013-04-20 01:54:00,
2013-04-19 22:00:00,60.1,59.2,29.64,SSE,148,2.0,2.0,97,0.00,,,0.00,Wunderground v.1.15,2013-04-20 02:00:00,
2013-04-19 22:06:00,60.1,59.2,29.64,SSE,162,1.0,2.0,97,0.00,,,0.00,Wunderground v.1.15,2013-04-20 02:06:00,
2013-04-19 22:12:00,60.1,59.5,29.63,SSE,160,1.0,3.0,98,0.00,,,0.00,Wunderground v.1.15,2013-04-20 02:12:00,
2013-04-19 22:17:00,60.1,59.5,29.63,SSE,161,2.0,6.0,98,0.00,,,0.00,Wunderground v.1.15,2013-04-20 02:17:00,
2013-04-19 22:22:00,60.1,59.2,29.64,SSE,150,2.0,5.0,97,0.00,,,0.00,Wunderground v.1.15,2013-04-20 02:22:00,
2013-04-19 22:27:00,60.0,59.4,29.65,SSE,150,2.0,5.0,98,0.00,,,0.00,Wunderground v.1.15,2013-04-20 02:27:00,
2013-04-19 22:33:00,59.9,59.3,29.65,South,184,2.0,4.0,98,0.00,,,0.00,Wunderground v.1.15,2013-04-20 02:33:00,
2013-04-19 22:38:00,59.9,59.3,29.65,SSW,202,2.0,8.0,98,0.00,,,0.00,Wunderground v.1.15,2013-04-20 02:38:00,
2013-04-19 22:43:00,59.8,59.2,29.64,South,178,2.0,3.0,98,0.00,,,0.01,Wunderground v.1.15,2013-04-20 02:43:00,
2013-04-19 22:49:00,59.8,59.2,29.66,WSW,241,3.0,6.0,98,0.12,,,0.02,Wunderground v.1.15,2013-04-20 02:49:00,
2013-04-19 22:54:00,59.8,59.2,29.68,WSW,238,4.0,8.0,98,0.06,,,0.02,Wunderground v.1.15,2013-04-20 02:54:00,
2013-04-19 23:00:00,60.0,59.4,29.66,WSW,258,3.0,3.0,98,0.05,,,0.03,Wunderground v.1.15,2013-04-20 03:00:00,
2013-04-19 23:06:00,60.1,59.8,29.66,WSW,258,1.0,3.0,99,0.09,,,0.04,Wunderground v.1.15,2013-04-20 03:06:00,
2013-04-19 23:11:00,60.1,59.8,29.64,WSW,258,0.0,0.0,99,0.07,,,0.04,Wunderground v.1.15,2013-04-20 03:11:00,
2013-04-19 23:17:00,60.1,59.8,29.64,WSW,258,0.0,0.0,99,0.04,,,0.04,Wunderground v.1.15,2013-04-20 03:17:00,
2013-04-19 23:22:00,60.0,59.7,29.65,WSW,258,0.0,0.0,99,0.04,,,0.05,Wunderground v.1.15,2013-04-20 03:22:00,
2013-04-19 23:28:00,60.0,59.7,29.65,WSW,258,0.0,0.0,99,0.04,,,0.05,Wunderground v.1.15,2013-04-20 03:28:00,
2013-04-19 23:33:00,60.0,59.4,29.65,WSW,258,0.0,0.0,98,0.04,,,0.05,Wunderground v.1.15,2013-04-20 03:33:00,
2013-04-19 23:39:00,60.0,59.7,29.65,WSW,258,0.0,0.0,99,0.00,,,0.05,Wunderground v.1.15,2013-04-20 03:39:00,
2013-04-19 23:44:00,59.9,59.6,29.64,WSW,258,0.0,0.0,99,0.00,,,0.05,Wunderground v.1.15,2013-04-20 03:44:00,
2013-04-19 23:50:00,59.9,59.6,29.64,WSW,258,0.0,0.0,99,0.00,,,0.06,Wunderground v.1.15,2013-04-20 03:50:00,
2013-04-19 23:55:00,59.9,59.6,29.64,WSW,258,0.0,0.0,99,0.00,,,0.06,Wunderground v.1.15,2013-04-20 03:55:00,